Theta_e
316 317 317 317 318 318 317 316 317 316 317 317 316 316 317 317 316 316 316 316 315 315 315 315 314 314 314 314 314 315 314 314 314 314 314 314 315 315 316 318 318 320 321 320 320 321 320 321 321 320 320 321 321 321 321 321 321 321 321 321 321 321 321 321 321 321 320 320 320 319 320 321 321 320 322 323 324 325 325 326 326 326 326 327 327
317 316 316 317 318 318 317 317 317 316 317 317 316 317 318 317 315 315 315 315 315 315 315 314 314 313 314 314 314 313 313 314 314 315 315 315 315 315 315 316 318 319 318 317 317 317 317 318 320 320 321 321 321 321 321 321 321 320 320 321 321 321 321 321 321 320 320 319 318 318 319 320 320 320 320 321 322 324 325 325 325 326 326 327 327
317 317 316 317 318 317 317 317 317 317 317 316 316 317 318 317 316 315 315 315 315 315 315 314 313 313 314 314 313 313 313 314 315 315 315 315 314 314 314 315 317 317 316 315 315 315 314 315 316 318 321 321 321 321 321 321 320 320 320 321 321 321 321 321 321 320 319 319 318 318 319 320 320 320 320 320 321 322 324 325 325 326 326 326 326
317 316 316 317 318 317 317 317 317 317 317 316 316 317 317 317 317 315 315 315 315 315 314 313 313 313 313 313 312 313 312 313 314 314 314 314 313 313 314 315 316 315 315 314 314 314 314 313 313 316 320 321 320 320 320 320 320 320 321 321 320 320 320 320 320 320 319 318 318 319 320 320 321 321 321 321 320 320 322 324 325 325 326 326 326
316 316 317 317 318 317 317 317 316 316 317 316 316 317 316 317 317 315 315 315 315 315 314 313 313 313 312 312 313 312 311 312 313 313 313 313 313 313 315 316 315 315 314 314 314 314 313 312 311 315 319 320 319 319 319 319 320 320 320 320 320 320 319 319 320 320 319 319 319 319 320 320 320 321 321 321 320 320 321 324 325 325 325 326 327
317 316 317 317 317 317 317 317 316 317 317 316 316 317 316 317 317 315 315 315 315 315 313 313 313 312 312 312 312 312 310 311 312 311 312 313 312 313 315 316 314 314 313 313 313 312 312 312 311 313 317 319 318 318 319 319 319 320 320 320 319 319 319 319 319 318 318 318 318 318 319 320 320 321 321 320 319 320 321 322 324 325 325 326 326
317 316 317 317 317 317 317 316 317 317 317 317 317 316 316 317 316 315 314 315 315 315 313 313 313 312 312 311 312 312 310 310 311 311 311 312 312 312 314 315 314 313 313 312 312 312 312 312 311 312 314 315 315 316 318 318 319 319 319 319 318 318 318 318 318 317 317 317 317 318 319 319 320 320 320 320 320 320 321 322 323 324 325 325 326
317 317 317 317 316 316 316 317 317 317 317 317 317 316 316 317 316 314 314 315 315 315 314 313 313 312 311 311 311 312 311 310 311 311 310 311 312 312 314 315 313 312 313 313 313 313 313 312 312 312 312 312 314 315 316 317 318 318 318 318 317 318 318 318 318 318 318 318 317 318 319 320 321 321 321 321 320 321 323 323 323 324 325 326 326
317 317 317 317 317 317 317 317 317 317 318 317 317 316 317 317 316 314 314 315 315 314 314 313 313 312 311 311 310 311 311 309 310 311 310 311 312 312 314 314 313 313 313 313 313 314 314 313 312 312 312 312 314 315 315 315 316 316 316 316 317 317 317 317 317 317 318 318 318 319 319 320 321 322 321 321 321 322 324 324 323 325 325 326 326
317 317 317 317 317 317 317 317 316 317 317 317 317 316 317 317 316 314 314 315 314 314 314 313 313 312 311 311 310 311 312 309 310 311 310 312 312 312 313 313 313 313 312 313 313 315 315 313 312 312 311 312 313 314 313 313 314 315 315 315 315 315 315 316 316 316 317 318 320 321 321 321 322 323 323 323 322 322 323 323 324 324 325 326 326
317 317 317 317 317 318 317 317 317 317 317 317 317 316 317 317 315 314 315 314 314 314 314 313 312 311 311 311 310 310 311 310 310 311 310 311 312 312 312 312 312 312 311 313 313 315 316 314 312 311 311 312 313 312 311 311 313 313 314 314 314 314 315 315 316 316 317 319 321 322 322 323 324 324 324 324 323 323 323 324 324 324 325 325 325
317 317 318 317 318 318 317 317 317 317 317 317 317 317 317 317 315 314 315 314 314 314 313 312 312 312 311 311 310 310 311 311 309 310 311 311 312 311 312 311 311 311 311 313 314 315 315 313 312 312 312 312 313 311 310 310 311 312 313 314 314 314 315 316 317 317 319 319 320 322 323 324 324 324 324 324 324 324 324 324 325 325 325 324 324
317 317 318 318 318 318 317 317 318 317 317 317 318 317 317 317 315 315 315 314 314 314 313 312 312 312 312 311 310 309 311 310 309 310 310 311 312 311 312 311 311 311 311 313 315 314 314 313 312 312 312 312 312 310 309 309 310 311 313 314 313 313 314 316 317 319 320 320 321 323 323 324 325 325 325 325 325 325 325 325 325 326 325 324 324
318 318 318 318 318 318 317 318 318 317 317 318 318 317 317 317 316 316 315 314 314 314 313 312 312 312 312 312 311 309 309 309 309 310 310 311 312 311 311 311 311 311 311 314 315 313 312 312 312 312 312 313 311 310 309 309 310 312 313 313 312 313 314 316 318 319 320 320 322 323 323 324 325 326 326 326 326 326 326 326 325 325 325 324 325
318 318 318 318 319 318 318 318 318 317 318 318 317 317 317 317 317 316 315 315 314 314 313 312 312 311 312 313 313 311 311 309 308 310 310 311 311 311 311 311 311 310 311 314 315 312 312 312 312 313 313 312 311 309 309 309 310 311 312 312 312 312 314 316 317 318 319 321 323 323 323 324 325 325 326 326 326 326 326 326 324 324 324 324 324
318 318 318 318 318 318 319 318 318 317 318 319 317 317 317 317 317 316 316 315 314 314 313 312 312 311 312 314 313 312 313 310 308 309 310 311 311 311 311 310 310 310 310 314 314 312 312 312 312 313 313 311 309 308 309 309 310 310 310 310 311 312 313 315 317 318 319 321 323 323 323 324 325 325 325 325 325 325 325 325 324 324 324 323 324
319 318 318 318 318 318 319 318 318 318 319 319 317 317 317 317 317 317 316 315 315 314 313 312 312 311 311 313 313 313 313 309 309 311 310 310 311 311 311 311 310 310 310 312 315 313 312 312 312 313 313 310 308 308 308 308 309 310 309 310 311 312 313 315 317 318 320 322 323 323 324 324 325 325 325 325 325 325 324 324 324 324 324 323 324
319 319 319 319 318 319 318 318 318 318 319 319 317 317 317 316 316 316 315 315 315 315 313 312 312 311 310 311 312 313 311 309 310 312 311 310 311 311 311 311 310 310 309 311 315 314 312 312 312 313 312 309 308 308 308 308 309 309 309 309 311 312 313 315 317 318 320 322 323 323 324 324 324 324 324 324 324 324 324 324 324 324 324 324 324
320 320 320 320 319 319 319 318 318 318 319 318 317 317 316 316 315 315 315 315 315 315 313 312 312 312 311 310 310 310 309 309 310 312 313 312 311 311 311 311 310 310 309 310 314 314 312 312 312 313 312 310 309 309 308 308 308 309 309 310 310 311 313 314 316 319 321 322 323 324 324 323 324 324 324 323 323 323 324 324 324 324 324 324 324
320 321 320 320 319 319 319 319 319 318 318 318 318 317 316 316 315 314 314 314 315 315 313 312 313 312 311 310 310 310 309 309 309 311 314 314 312 311 311 311 310 310 310 309 312 314 313 312 313 313 312 311 309 309 309 308 308 309 309 309 310 311 312 314 316 319 321 322 323 324 324 323 324 324 323 323 323 323 323 323 324 324 324 323 324
319 321 321 321 320 320 320 319 319 318 318 318 317 317 316 315 314 313 313 315 315 314 313 312 313 313 312 311 310 309 308 309 309 310 313 313 313 313 311 311 311 310 310 310 311 312 312 312 313 313 313 312 310 309 308 307 307 309 310 309 309 310 312 313 316 318 321 323 323 324 324 324 323 324 324 323 323 323 323 323 323 323 323 323 323
320 320 321 321 321 320 320 319 319 319 318 318 317 317 316 314 313 313 315 316 315 314 313 313 313 313 312 311 310 309 309 310 309 309 311 312 313 313 312 311 311 311 310 310 310 311 312 312 313 313 312 312 311 309 308 307 308 309 309 309 309 310 311 313 315 319 322 323 323 323 324 324 324 324 323 323 324 323 323 323 323 323 323 323 323
323 322 321 321 321 320 320 319 320 320 319 319 317 316 316 313 312 314 316 316 315 314 314 313 313 313 312 311 310 309 309 310 309 310 311 312 313 314 312 310 311 311 310 310 310 310 311 312 313 313 312 312 311 309 308 307 307 309 309 308 308 309 310 312 315 320 322 323 323 324 324 324 324 324 323 324 324 324 323 323 323 323 323 323 323
323 323 322 322 322 322 321 321 321 320 320 318 317 317 316 313 313 315 316 316 315 315 314 313 313 313 311 311 310 309 308 309 310 311 311 311 312 314 312 310 311 311 310 310 310 310 311 312 313 312 312 312 311 309 308 307 308 309 309 308 307 308 308 310 314 319 322 323 323 324 323 323 324 324 324 324 323 323 323 323 323 323 323 323 323
324 323 323 323 323 322 321 321 321 320 319 318 317 317 316 313 313 315 315 315 316 315 314 313 314 313 311 311 309 309 309 309 310 311 311 311 311 313 312 311 311 311 310 310 310 310 311 312 312 313 312 311 311 309 307 307 308 309 308 308 307 307 307 308 312 318 321 323 323 323 323 323 323 323 323 324 324 323 323 323 324 324 323 324 324
323 323 323 323 323 321 320 321 320 319 319 318 317 317 316 313 312 315 315 315 316 315 313 313 313 312 311 310 308 308 309 309 309 311 311 312 311 312 313 311 311 310 310 310 310 310 311 312 312 313 312 311 311 309 308 308 308 308 308 308 306 306 306 307 310 316 320 322 323 323 323 323 323 323 323 323 324 324 324 323 324 324 324 324 324
323 322 322 322 322 321 321 320 320 319 319 318 317 317 317 313 312 314 314 315 316 314 313 313 312 311 310 309 308 308 309 309 310 311 311 312 312 312 312 312 312 311 310 310 310 310 311 312 313 312 312 311 310 309 308 308 308 308 307 307 307 305 305 306 310 315 318 321 322 322 323 324 323 323 323 324 323 323 324 324 324 324 325 324 324
322 322 323 322 322 321 321 320 320 319 319 318 317 316 317 314 312 313 314 315 316 314 313 312 310 309 308 308 308 308 309 310 310 310 311 312 312 311 311 311 312 312 312 311 311 311 311 312 313 312 312 311 310 308 307 307 308 308 307 307 307 305 305 305 308 312 316 319 320 322 323 323 323 324 324 324 324 324 324 324 325 325 325 325 325
320 321 322 323 322 322 321 320 320 320 319 318 317 316 317 315 312 312 314 315 315 314 313 311 309 307 307 307 307 308 309 310 310 310 311 311 311 311 310 310 311 311 313 313 313 311 311 312 312 312 312 311 309 308 307 307 308 307 307 307 307 305 304 304 306 309 313 317 318 320 322 323 323 323 324 324 324 324 324 325 325 325 325 325 325
321 320 320 321 322 322 321 320 320 321 320 319 318 317 317 316 313 312 313 314 314 313 312 310 308 307 306 306 306 308 309 309 309 311 311 311 311 311 310 310 310 310 311 313 313 311 311 312 312 312 312 310 309 308 306 307 308 307 307 307 306 306 304 304 304 305 308 312 315 317 318 320 321 322 322 323 323 324 324 324 324 324 324 325 325
323 322 321 320 320 320 320 321 321 321 321 320 319 318 317 316 313 311 312 313 314 312 311 311 309 307 306 305 306 308 309 309 310 311 311 310 311 310 309 309 310 310 310 311 313 312 311 312 312 312 312 310 308 307 306 307 307 307 306 306 306 306 304 303 303 304 305 307 310 313 314 315 317 319 320 320 321 322 322 323 323 323 323 324 325
322 322 322 322 321 320 321 322 322 321 321 321 319 319 317 316 313 311 310 312 313 313 312 311 310 308 306 305 306 308 308 309 311 311 310 310 311 310 308 308 309 311 311 310 312 313 311 312 312 312 312 310 308 307 306 307 307 307 306 306 306 305 304 303 303 303 304 305 307 309 311 312 314 317 318 318 319 319 320 321 321 321 322 323 324
322 321 321 322 322 321 322 322 322 321 321 320 319 319 317 315 312 310 310 311 314 314 313 311 310 308 307 306 306 307 308 309 310 310 310 310 310 309 308 307 309 311 312 311 312 313 312 312 312 312 311 309 308 307 307 307 307 307 306 306 305 305 304 303 303 303 303 304 306 307 308 309 311 314 315 316 317 317 318 319 319 319 320 321 322
322 321 321 321 321 322 322 322 322 321 321 320 319 318 316 314 312 311 311 311 312 313 312 312 310 309 308 306 305 306 308 309 309 309 308 309 309 308 306 307 309 311 312 311 311 312 311 311 311 312 311 309 307 307 307 307 307 307 306 306 305 304 303 303 303 303 303 303 305 306 306 307 308 310 312 312 314 316 317 317 316 316 317 318 319
322 322 322 321 320 321 321 321 321 320 320 319 318 317 316 314 313 312 312 310 310 310 310 311 310 308 308 306 305 307 308 308 308 308 307 308 309 307 305 307 311 312 312 312 311 311 311 311 312 312 311 309 308 307 307 307 307 307 306 306 305 304 303 302 302 303 303 303 304 305 305 307 308 308 310 312 314 315 315 316 316 316 317 317 318
321 322 322 321 321 321 321 321 320 320 320 319 318 317 315 314 313 313 313 311 309 309 310 310 310 309 309 308 306 307 307 307 307 306 306 307 308 306 306 309 312 312 312 312 312 312 311 311 311 311 311 309 309 308 307 306 307 307 306 305 305 303 303 302 302 302 303 303 303 304 305 307 308 309 309 311 313 314 314 315 316 316 316 317 318
320 320 321 321 321 322 322 322 321 320 320 319 319 318 316 315 314 314 313 311 308 309 309 310 310 310 310 309 308 306 307 307 305 304 305 306 307 307 308 311 312 312 312 312 312 312 311 311 311 311 310 309 309 308 307 307 307 307 306 305 304 303 302 302 301 302 303 303 303 303 304 305 306 308 309 310 312 313 313 313 315 316 316 316 316
322 321 320 320 321 321 321 321 321 321 320 320 319 318 316 315 314 313 312 310 308 307 307 308 310 310 311 311 309 307 307 305 303 303 304 305 307 308 309 311 312 312 312 312 312 312 311 311 311 311 311 310 309 307 306 307 307 307 306 306 304 303 302 302 301 301 302 303 303 303 303 304 304 305 307 308 310 311 312 312 313 314 315 315 315
325 323 322 321 321 321 321 321 321 321 320 320 319 318 317 315 314 313 311 310 309 306 306 308 310 310 310 310 309 307 307 304 302 303 304 305 307 308 309 311 312 312 312 312 311 311 311 311 310 311 311 309 308 307 306 306 306 306 306 306 305 303 302 302 301 301 302 302 303 303 303 303 303 304 304 305 306 308 310 311 311 312 313 313 314
328 326 325 324 322 322 322 321 321 321 320 320 319 318 317 316 314 312 310 310 308 307 308 310 309 309 310 310 307 307 306 304 302 304 304 305 307 308 309 311 312 312 312 311 311 311 311 311 310 310 310 309 307 307 307 307 307 306 306 306 305 304 303 302 302 301 301 302 303 303 303 303 303 303 303 303 304 305 306 308 308 309 309 310 311
331 329 327 325 324 323 322 322 322 321 320 320 319 318 317 315 314 312 310 309 308 307 309 309 308 309 310 309 307 306 306 304 304 305 305 305 307 309 309 311 311 312 312 311 311 311 310 310 310 310 310 310 308 308 308 307 307 306 306 306 305 304 303 302 302 301 302 302 302 302 302 302 302 302 302 302 303 303 304 305 306 306 306 307 307
330 329 327 326 324 323 323 322 322 322 321 320 319 318 316 315 313 311 310 309 307 307 308 306 305 308 309 309 307 306 306 305 305 307 307 305 307 308 309 310 311 311 311 311 311 311 310 310 310 310 310 310 310 309 308 307 306 306 306 306 305 304 303 303 302 302 302 302 302 302 302 302 302 302 302 302 302 302 303 303 304 304 305 306 306
330 329 328 327 326 325 324 323 323 323 322 321 319 318 316 314 313 312 312 311 308 306 306 304 304 307 309 309 307 307 307 306 305 307 308 307 307 308 309 309 310 311 311 311 311 311 310 310 310 310 310 310 309 308 307 306 306 306 306 305 305 304 303 303 302 302 302 302 302 302 302 302 302 301 301 301 301 301 302 302 303 304 305 306 306
326 327 328 328 328 327 326 325 325 324 323 322 321 319 316 313 312 313 314 313 308 305 304 304 305 308 309 308 306 306 307 307 306 307 307 308 308 308 308 309 309 310 311 311 311 311 310 310 310 310 310 310 309 308 306 306 306 306 305 305 305 304 303 303 302 302 302 302 302 302 302 302 302 302 301 301 302 301 302 302 304 304 305 305 305
321 322 323 325 326 327 326 326 326 325 324 324 322 320 316 313 313 313 314 312 308 305 304 304 306 308 308 306 306 306 306 307 307 307 307 309 310 309 309 309 309 310 311 311 310 310 310 310 310 310 310 310 309 308 307 306 306 306 305 305 304 304 303 303 303 302 302 302 302 302 302 301 301 301 301 301 302 302 302 303 304 304 304 304 304
319 320 320 321 322 323 325 325 326 326 325 324 323 320 317 314 314 314 314 312 308 306 306 304 304 307 308 307 307 306 307 308 307 307 308 309 309 309 308 310 310 309 310 311 311 310 310 310 310 310 310 310 309 308 307 306 306 306 305 305 304 304 304 303 303 303 303 303 303 302 302 302 301 301 300 301 302 302 303 304 304 303 303 304 304
317 318 319 320 320 320 321 323 325 325 324 324 323 322 318 315 314 314 313 310 307 307 308 303 301 306 309 307 307 307 307 308 307 307 308 307 307 307 308 310 310 308 309 311 310 309 309 310 310 311 311 310 309 308 307 306 306 305 305 305 304 304 303 303 303 303 303 303 303 302 302 302 302 301 301 300 301 301 302 303 304 304 303 303 303
315 316 317 318 319 319 319 319 322 323 324 323 323 322 319 316 315 313 311 309 306 308 309 302 299 306 309 305 305 307 307 308 308 306 305 305 305 307 309 310 309 308 309 310 309 309 309 310 311 311 311 311 309 308 307 306 306 305 305 305 304 304 304 303 303 303 303 303 303 303 303 303 302 302 302 302 301 300 300 300 302 303 304 303 303
312 313 314 316 318 320 319 318 319 320 322 323 322 322 320 316 314 313 311 308 307 309 309 302 299 306 308 304 305 306 306 307 308 306 304 304 304 307 309 310 309 308 309 308 308 309 310 311 311 311 311 311 310 307 306 306 306 306 305 305 304 304 304 304 304 303 303 303 303 303 303 303 303 303 303 303 302 302 301 300 299 301 302 302 302
311 311 313 314 315 316 317 317 318 319 321 322 322 321 320 317 314 313 311 309 308 309 308 301 297 303 307 306 305 306 305 307 306 305 303 303 304 307 310 310 309 308 309 309 309 310 310 311 311 311 311 311 309 307 306 306 306 306 306 306 305 304 304 304 304 304 304 304 304 304 304 303 303 303 303 303 302 302 301 300 299 299 299 299 300
311 311 312 312 312 313 314 315 316 318 321 322 322 321 320 317 315 313 311 309 308 308 308 300 295 301 307 306 305 305 306 306 305 304 303 303 305 308 309 310 309 309 309 309 309 310 310 311 311 311 311 310 309 308 307 307 306 306 306 306 305 305 305 305 304 304 304 304 304 304 304 304 304 303 303 302 302 301 300 299 298 298 298 298 299
Wind_Speed
4 7 10 12 16 12 8 9 10 10 10 12 14 16 17 16 19 19 15 14 15 19 22 19 18 19 18 17 19 20 20 19 19 19 19 18 17 16 12 9 11 11 9 11 13 15 17 18 19 21 23 23 24 23 23 23 22 23 24 25 25 25 25 25 25 26 26 27 28 29 29 29 28 27 27 27 27 26 25 26 28 30 30 29 30
3 6 9 13 15 10 9 11 11 10 10 11 13 16 16 14 17 18 16 17 18 21 20 17 19 20 18 17 21 23 22 20 18 18 17 16 16 14 10 10 11 11 11 13 16 18 20 20 20 21 22 22 23 23 23 23 23 24 25 25 26 26 26 27 27 27 28 29 31 31 30 30 30 28 28 28 28 27 26 26 27 29 31 30 30
4 6 8 13 13 10 10 11 11 11 10 11 12 15 13 12 15 16 17 18 18 20 18 18 20 20 18 19 22 22 21 19 17 16 15 15 15 14 13 12 12 13 16 18 20 20 21 21 21 22 21 21 23 23 24 24 24 25 26 25 25 26 27 27 28 28 29 31 32 32 31 31 31 30 29 28 29 28 27 26 26 27 30 31 30
5 6 7 12 11 10 11 11 12 12 11 12 11 12 13 14 14 14 15 15 17 20 18 18 20 19 18 20 22 21 20 20 18 16 15 14 14 14 14 13 14 16 19 21 21 21 21 21 22 22 20 21 22 23 25 25 26 26 26 26 25 26 27 28 29 30 31 32 32 32 32 32 31 32 31 29 30 30 28 27 26 26 28 31 31
5 4 6 9 10 11 12 12 13 12 11 10 8 11 14 17 14 12 14 14 16 19 18 19 19 18 19 20 20 19 21 21 20 19 16 15 15 15 14 14 17 19 21 22 21 21 21 22 23 21 20 21 23 24 25 26 27 27 27 26 26 27 29 30 32 32 32 33 33 32 33 34 33 32 32 32 31 31 29 28 27 26 27 30 31
3 2 4 8 8 10 12 12 11 10 12 10 8 11 14 17 14 11 14 14 16 18 18 19 18 19 19 19 18 17 20 21 19 19 18 17 17 17 15 15 19 21 22 22 20 20 20 21 22 20 19 21 23 25 26 27 27 28 28 28 28 30 31 33 35 35 34 34 35 34 34 35 36 35 34 34 33 32 31 29 28 27 27 29 31
4 2 4 8 9 10 11 11 9 9 12 11 10 12 14 17 15 12 14 14 16 17 18 20 18 19 19 18 17 15 19 22 18 18 19 18 17 18 15 15 20 22 20 19 19 19 20 21 21 19 21 23 24 25 25 27 27 28 29 29 30 32 33 35 36 36 37 38 38 37 36 36 36 36 36 36 35 34 32 31 29 28 27 28 31
6 5 4 7 8 8 9 8 8 9 11 11 12 12 14 17 13 12 14 15 16 17 18 19 18 19 18 17 17 14 17 23 19 17 19 18 18 19 16 16 20 21 19 19 19 19 21 22 21 21 24 24 23 24 25 26 27 29 30 31 32 33 34 35 37 38 39 40 41 41 40 40 38 35 36 37 37 35 33 32 30 28 27 26 29
7 6 5 6 5 5 7 7 8 9 9 10 11 12 15 16 11 11 14 14 16 18 18 18 17 19 18 15 17 14 15 23 20 17 20 19 19 19 17 17 20 20 20 20 21 20 21 22 21 22 24 24 23 24 25 27 28 30 31 32 33 35 36 37 38 39 40 42 43 45 45 45 41 36 35 37 38 36 33 32 30 28 27 27 29
7 6 6 5 4 5 6 6 7 9 9 9 10 12 15 15 10 10 13 13 15 17 18 18 17 18 17 14 17 13 13 21 20 17 22 22 22 20 18 18 20 20 21 21 21 19 20 22 22 23 24 23 23 24 27 29 30 31 31 32 33 36 38 39 39 41 44 44 44 46 47 45 42 38 36 36 38 36 34 33 31 29 28 28 29
6 7 7 6 6 5 5 6 7 9 10 9 10 12 15 13 9 9 12 13 13 16 18 17 16 17 16 13 15 13 11 18 19 18 22 23 23 21 18 20 22 22 23 22 19 16 18 21 22 24 24 23 22 25 30 31 31 31 31 32 34 37 39 41 43 44 46 45 45 47 43 38 37 37 36 36 37 36 35 33 32 30 28 28 30
6 8 8 8 8 6 4 5 7 10 11 11 12 12 13 10 8 10 12 13 13 15 17 16 16 16 14 12 13 12 9 15 18 16 20 23 23 22 21 24 25 24 25 22 17 14 16 20 23 24 23 21 22 27 32 33 33 31 30 32 34 37 40 42 45 47 47 47 47 43 35 31 31 31 34 35 35 36 35 33 31 29 28 29 30
5 6 7 8 8 6 4 4 7 11 10 11 11 9 10 8 8 10 11 14 13 14 17 16 15 12 9 7 8 10 7 13 19 14 17 23 22 24 25 25 26 25 26 22 15 15 17 20 24 24 21 20 23 30 34 34 33 30 29 33 35 38 42 44 45 46 47 48 46 37 29 28 27 25 28 31 32 33 34 33 30 28 27 28 29
4 5 5 5 5 5 4 5 9 10 7 10 10 7 9 8 9 11 10 13 13 13 17 15 13 10 7 3 2 5 4 10 18 13 14 21 22 24 26 26 27 26 27 21 14 16 19 21 24 23 20 20 27 33 34 34 32 29 30 33 36 40 43 45 46 47 47 47 40 29 25 25 21 19 22 25 28 30 31 31 29 28 27 27 28
4 5 6 5 3 3 4 6 10 8 7 10 8 7 9 8 11 12 10 12 12 11 14 13 13 13 8 3 1 3 2 6 16 14 13 19 22 25 26 27 28 27 27 19 12 17 21 21 22 21 20 23 30 33 33 33 31 29 31 33 37 41 43 45 47 48 48 44 33 23 23 22 17 12 12 15 20 23 25 25 25 24 24 25 25
7 7 8 6 5 5 5 7 9 7 8 10 7 6 8 8 11 11 10 11 10 9 10 10 13 13 6 2 2 3 1 4 10 11 13 17 21 26 26 28 29 27 27 18 11 19 22 21 22 21 20 25 31 32 32 33 32 32 34 35 38 42 43 46 47 45 45 41 29 20 19 18 15 10 5 4 8 13 16 18 20 21 21 23 22
7 7 7 7 7 7 6 8 8 7 9 9 6 7 7 9 10 10 10 10 9 7 7 7 9 12 8 3 2 2 2 5 6 7 12 15 19 24 24 27 29 26 27 20 11 18 23 21 23 20 20 26 30 31 33 33 33 34 36 37 39 42 44 46 45 43 42 36 24 18 16 13 11 8 3 2 4 8 11 13 15 17 18 20 20
7 9 8 7 9 8 7 8 7 8 10 7 6 7 8 9 8 9 10 9 10 7 5 6 5 8 9 5 2 1 4 6 4 5 8 8 15 24 24 26 29 26 27 24 13 16 23 21 22 21 19 26 31 32 33 33 33 34 36 37 39 43 45 45 43 42 41 31 21 17 14 10 7 4 2 2 5 7 9 11 13 14 15 17 18
9 9 9 9 9 8 6 8 8 8 7 5 7 8 8 8 8 9 9 9 11 7 3 5 3 4 6 4 3 3 5 5 2 4 5 3 9 18 20 24 28 25 26 26 16 14 23 23 22 22 20 24 31 33 33 33 34 35 37 39 41 44 45 44 41 40 39 28 18 15 11 8 6 3 2 1 3 5 7 8 10 11 13 15 17
9 7 7 9 9 7 8 9 8 7 5 6 8 9 9 9 9 10 9 10 11 6 3 5 4 3 4 4 4 6 8 6 4 4 3 4 7 10 14 20 26 26 25 27 19 13 21 25 22 23 22 22 29 33 32 33 34 34 37 39 41 43 44 43 40 40 38 25 15 12 9 7 5 3 2 1 2 3 5 6 8 9 11 14 15
9 9 8 8 8 9 10 9 8 8 8 8 9 9 10 10 10 10 9 10 9 3 4 7 6 4 4 5 5 7 9 8 7 6 3 4 5 6 11 16 21 25 26 26 21 14 18 24 22 23 25 22 27 33 32 32 33 33 36 38 41 43 43 42 39 40 36 22 15 13 9 7 5 4 3 3 3 3 4 5 7 9 11 13 14
10 10 9 9 10 11 11 10 10 10 10 11 11 10 10 10 9 7 7 9 5 2 5 7 6 4 4 6 7 7 6 4 5 6 4 3 3 5 8 10 11 18 25 26 23 16 17 23 22 22 26 23 25 32 32 32 33 32 34 39 42 43 43 41 38 38 31 19 16 14 8 7 6 5 4 4 5 4 4 6 8 9 11 12 14
11 11 11 12 12 11 11 11 11 12 12 12 11 9 10 10 8 6 6 7 4 4 6 7 6 4 3 5 7 6 4 3 6 6 3 3 3 4 6 9 8 11 21 24 23 18 15 21 22 21 26 24 23 30 31 31 33 32 35 40 43 43 43 39 36 37 27 16 15 13 9 9 9 8 7 6 7 7 5 6 8 9 11 12 13
13 13 13 12 11 11 11 12 12 12 11 10 9 8 10 10 7 6 7 6 6 6 6 7 6 3 2 4 6 6 5 7 8 8 6 4 4 3 6 10 7 10 19 21 21 19 15 20 22 21 25 24 22 28 30 31 33 33 35 41 43 43 44 39 36 37 27 16 16 14 12 13 12 11 11 10 9 10 9 7 8 9 10 10 11
12 13 13 12 11 12 12 13 13 11 10 9 8 8 10 9 6 7 7 7 8 7 6 7 5 1 2 5 6 5 6 9 10 9 8 7 5 3 6 9 5 7 16 18 18 17 15 21 22 20 25 23 21 27 29 30 33 33 35 40 44 45 45 41 37 37 30 20 17 16 14 15 15 15 14 12 10 12 11 8 8 9 9 9 10
12 13 13 12 12 12 12 13 12 11 10 9 8 8 10 9 7 7 7 7 8 6 6 6 3 1 3 6 7 5 7 11 11 9 9 9 8 4 5 7 5 5 9 12 16 14 13 21 22 20 24 23 21 25 28 30 31 34 36 38 43 47 46 42 37 37 35 26 18 18 18 16 16 17 16 14 14 13 11 7 6 8 9 9 9
13 13 14 14 14 13 12 12 12 11 10 10 9 9 10 9 7 7 7 8 7 4 6 6 3 3 5 7 8 7 9 10 8 8 9 9 9 7 5 4 4 5 4 7 11 10 12 21 21 21 23 22 22 24 26 29 30 34 38 38 41 46 46 44 39 37 37 33 26 21 19 18 17 17 17 16 16 14 12 9 7 8 10 11 10
15 15 15 16 15 14 14 14 13 12 12 11 10 10 11 9 8 7 7 7 6 4 6 6 3 4 6 8 9 8 9 7 5 6 8 7 8 10 10 5 2 4 4 5 6 6 13 18 16 20 24 21 21 23 25 29 30 33 38 38 40 44 45 44 42 38 37 37 35 28 21 19 18 18 18 17 16 15 15 11 9 9 11 12 12
17 16 16 16 16 15 15 15 14 14 13 12 11 11 11 9 8 7 7 8 7 6 6 5 3 5 6 8 9 9 7 4 5 7 6 6 7 10 12 9 3 2 3 4 4 4 11 17 14 16 23 21 20 23 26 28 29 32 36 37 38 41 43 45 45 41 38 36 37 36 30 26 24 22 21 19 17 17 17 14 11 11 12 13 14
17 17 17 17 17 16 15 15 15 14 13 12 11 10 11 10 8 6 7 9 8 6 5 4 4 5 6 8 8 9 7 5 6 6 5 6 7 9 13 12 8 4 2 3 4 4 9 16 16 16 20 21 20 21 25 27 29 32 35 36 36 37 41 46 46 45 42 37 36 38 37 34 33 30 26 24 22 19 18 17 15 13 14 17 17
18 18 19 19 18 17 16 15 15 15 14 14 13 11 12 11 8 6 7 8 7 5 5 4 4 4 5 8 8 7 8 8 6 5 4 6 7 8 11 11 12 11 5 2 3 6 9 13 15 17 18 19 19 21 24 26 28 31 34 35 35 37 41 45 46 47 46 43 39 39 39 38 37 36 33 31 29 24 21 20 18 16 18 19 19
19 19 20 20 19 18 17 16 16 15 15 15 14 13 13 12 10 6 6 8 9 7 6 5 4 3 4 6 7 7 8 8 5 4 4 5 6 8 9 10 11 13 11 4 3 6 11 12 14 16 17 17 19 21 23 25 27 30 34 35 35 38 40 42 44 45 46 46 45 43 43 42 41 39 37 35 34 31 26 23 22 22 23 22 21
20 18 18 18 18 18 18 17 16 16 15 15 15 14 12 11 9 6 7 8 8 8 8 7 4 3 3 5 6 6 7 6 4 4 6 6 6 7 9 10 10 10 11 8 3 4 9 14 13 14 16 16 18 20 22 25 26 29 33 35 35 38 39 40 41 42 43 46 48 46 45 45 45 44 42 40 39 38 35 32 32 34 35 33 32
20 19 18 17 16 17 17 17 16 16 15 15 15 14 12 10 10 10 9 7 6 7 8 8 5 3 3 5 6 5 5 5 4 6 8 7 6 7 9 10 8 8 9 9 5 3 6 12 14 14 15 16 18 20 21 23 24 27 31 33 35 37 37 39 40 40 41 45 48 48 46 46 46 47 47 46 46 46 45 43 43 46 47 47 47
21 21 21 20 18 17 17 18 17 16 16 15 14 14 13 12 13 11 8 7 7 7 6 5 4 1 3 6 6 4 4 6 7 8 8 6 5 8 10 8 6 7 8 8 6 3 5 9 13 14 13 14 16 18 20 22 23 26 30 32 33 35 36 36 39 40 41 45 47 47 47 47 47 47 48 49 49 49 49 48 47 49 51 51 51
22 22 21 20 20 19 19 19 19 18 18 16 15 15 15 14 13 12 10 10 9 8 5 3 4 2 3 6 6 4 4 7 8 8 7 5 7 10 10 7 6 7 9 9 7 6 7 8 10 12 13 14 15 15 17 20 22 24 29 32 32 34 34 34 36 39 41 43 46 47 47 47 46 47 47 48 49 49 49 49 48 49 50 50 50
21 21 20 20 20 20 20 20 19 19 19 17 16 16 18 16 15 15 15 12 10 9 7 5 5 4 3 4 4 4 5 7 8 7 6 6 9 11 9 6 7 8 9 9 8 9 9 8 9 11 13 14 15 15 16 18 20 22 26 31 32 32 33 34 35 37 40 42 43 44 46 46 46 46 47 47 47 46 46 47 47 46 47 48 47
19 20 20 20 21 22 22 21 21 20 20 19 18 18 20 19 17 17 16 13 10 10 10 8 6 5 5 4 4 4 5 6 5 4 4 7 10 11 9 6 7 9 9 10 9 10 11 10 10 11 13 14 15 16 17 18 19 19 22 27 31 32 32 32 33 35 38 42 42 42 43 44 45 46 46 46 46 44 44 43 42 42 42 43 43
19 20 21 21 21 22 22 22 22 22 21 21 20 20 21 22 20 18 15 13 10 9 9 8 6 6 5 4 3 4 5 5 2 1 3 6 9 11 9 6 7 9 10 10 10 11 12 12 11 11 12 14 15 16 17 19 20 20 19 21 24 27 29 30 30 31 35 39 42 43 43 44 46 48 48 48 47 45 42 41 39 38 38 37 37
22 23 23 23 22 22 23 22 21 22 22 23 23 22 24 24 22 19 16 13 12 10 9 8 7 6 5 3 2 4 4 3 1 2 2 4 8 11 10 7 6 9 11 11 11 11 12 12 11 10 12 14 15 16 17 18 18 18 18 19 20 21 25 28 28 28 31 36 40 42 44 45 47 48 49 50 49 47 45 43 41 40 39 38 37
25 25 25 25 24 24 24 22 20 22 23 24 25 25 25 24 22 19 15 11 11 10 10 9 7 5 3 3 3 4 2 1 3 3 2 3 6 10 11 9 8 9 10 11 10 11 11 11 10 9 10 11 11 13 14 15 14 14 16 19 19 19 23 28 29 27 27 33 39 40 40 42 44 45 48 48 46 46 47 46 45 44 43 43 43
25 25 25 25 25 24 24 23 22 23 23 25 27 26 24 23 22 18 12 9 11 12 11 10 7 5 4 4 4 5 4 3 4 3 2 2 4 7 9 10 9 8 10 10 9 10 10 10 8 7 7 8 9 11 13 13 14 15 17 18 17 18 21 24 25 26 27 30 36 38 36 38 41 42 45 46 43 43 44 43 42 43 44 45 45
21 21 22 23 23 22 23 23 23 23 24 25 26 25 24 23 22 17 11 11 13 15 13 11 9 8 8 5 4 8 8 6 5 3 1 1 2 3 5 8 8 8 8 9 8 8 9 8 7 7 6 6 10 14 16 16 15 15 17 19 17 18 19 16 13 18 23 24 31 35 32 34 39 40 41 42 42 42 42 41 41 42 43 44 44
16 16 17 18 19 19 19 20 22 23 24 26 26 26 24 23 21 17 13 14 15 16 15 13 11 10 9 6 6 10 10 8 6 4 4 3 0 1 2 4 5 5 6 6 6 6 7 6 7 7 6 7 11 15 17 18 17 17 18 20 20 19 19 16 12 14 17 20 27 32 30 30 36 39 39 39 40 40 40 41 43 45 46 46 46
16 15 15 16 17 16 17 19 20 21 22 23 24 25 24 23 22 18 14 15 18 16 14 14 13 12 10 8 8 9 8 8 8 6 5 5 2 0 2 3 3 4 5 3 3 5 5 6 7 7 6 7 11 14 17 19 19 18 18 19 20 20 19 18 15 14 15 16 22 29 28 27 33 38 37 36 38 40 40 41 42 43 45 46 47
17 17 16 17 17 17 17 18 19 19 19 19 20 22 22 22 22 19 15 16 19 17 13 13 13 12 11 10 9 7 7 7 8 8 6 4 3 1 3 2 2 4 4 1 1 4 5 7 8 8 8 9 12 15 17 19 20 20 19 18 20 21 20 18 16 16 16 15 17 24 24 24 31 37 35 35 37 38 37 38 39 41 42 43 43
19 19 18 18 18 18 18 18 17 18 18 18 18 18 19 20 21 18 15 16 18 16 13 12 13 13 12 10 9 9 9 9 8 8 7 4 3 1 3 1 1 2 1 1 2 5 8 8 8 9 11 12 15 17 17 19 21 22 22 21 22 23 23 21 20 20 20 18 19 22 21 21 29 34 33 35 38 38 36 34 33 36 39 40 41
21 20 20 20 20 19 18 17 17 17 17 17 16 16 17 19 20 17 15 17 18 17 13 11 13 14 12 11 11 11 11 10 10 10 8 6 4 2 1 2 4 3 3 4 5 7 9 9 8 9 11 13 16 17 17 20 23 23 24 24 23 24 23 20 18 19 20 20 21 24 22 20 22 25 25 28 33 35 37 36 32 31 32 33 35
22 22 22 22 22 21 21 20 19 18 18 16 15 15 16 18 19 18 18 19 19 18 14 11 13 15 12 11 11 10 10 11 11 10 7 6 4 2 3 7 7 6 7 7 8 9 10 10 10 9 10 13 17 18 18 20 23 25 26 23 20 22 21 14 10 13 16 17 19 22 22 19 19 22 24 26 28 30 32 34 34 33 31 30 29
23 23 23 23 22 21 22 21 19 18 18 16 15 14 15 18 20 19 20 21 20 19 14 12 14 16 13 11 9 8 10 12 11 8 6 5 4 3 5 9 9 9 9 8 9 10 10 10 10 10 10 13 18 19 19 20 21 23 25 24 22 22 19 13 11 12 13 14 17 19 19 16 18 21 23 24 27 29 29 28 29 31 32 32 31
22 22 22 22 21 21 22 22 20 18 17 16 15 13 14 17 19 19 21 21 21 20 15 13 15 16 13 11 10 9 11 12 9 7 6 5 5 4 6 10 11 9 9 8 8 9 10 10 10 10 11 15 20 21 19 18 18 19 23 25 25 25 21 17 15 13 9 9 13 15 13 11 12 14 15 14 15 20 26 27 26 27 29 30 30
Wind_Direction
16 11 3 4 8 15 37 30 25 28 20 14 11 9 11 9 1 358 2 3 3 4 6 17 23 15 9 4 3 4 1 354 349 344 338 335 339 342 343 345 352 359 4 6 7 2 354 345 339 336 333 329 325 323 320 320 322 320 317 313 310 309 308 307 305 303 303 303 304 302 298 294 292 290 288 285 282 279 278 274 269 262 256 251 247
359 7 7 2 10 33 44 35 35 28 19 12 6 10 12 3 3 8 11 11 9 6 9 16 14 10 7 4 3 2 358 355 350 345 342 345 355 2 7 11 16 20 16 7 2 358 352 347 342 338 334 329 327 325 322 321 320 318 317 315 313 312 311 309 307 305 304 303 304 303 298 293 291 290 288 286 283 280 278 276 271 263 256 251 247
3 9 8 5 20 52 44 37 34 25 16 6 5 15 13 354 1 12 11 10 8 7 13 14 10 11 10 6 5 4 4 5 2 1 4 9 18 24 23 26 27 20 11 5 2 358 352 347 341 336 333 330 329 327 325 322 320 318 317 316 315 315 314 312 311 309 307 305 305 303 298 293 290 288 287 284 282 280 278 276 274 266 257 251 247
17 19 10 13 35 48 32 28 22 16 7 356 360 12 8 356 357 4 8 9 3 6 14 14 13 14 10 6 7 14 23 25 24 26 28 28 28 26 24 25 21 13 10 6 2 357 351 344 337 334 333 330 330 328 327 324 322 320 317 317 318 318 317 314 313 311 308 307 305 302 297 293 289 287 286 283 281 279 275 274 274 269 259 251 246
28 32 10 12 29 27 19 18 12 9 4 355 355 360 1 4 1 358 6 5 0 8 15 13 17 15 8 6 12 24 31 33 34 35 37 37 34 30 29 29 21 15 10 4 359 354 347 341 336 334 334 331 331 329 328 326 323 322 319 318 318 318 317 314 313 311 309 307 306 302 298 295 290 285 283 282 280 277 273 271 271 270 262 251 244
29 39 356 353 355 0 3 4 9 14 13 11 5 357 359 5 4 0 6 4 4 16 17 13 16 13 8 9 16 28 32 32 35 37 38 39 37 32 30 28 20 14 8 3 357 352 347 346 343 339 339 335 332 330 329 328 325 323 321 319 318 317 316 313 311 311 308 306 304 302 299 295 291 285 280 278 277 276 272 269 268 268 264 253 244
3 357 338 337 329 335 344 355 12 19 15 16 8 360 358 2 5 6 7 5 11 21 18 14 15 11 9 12 17 25 30 29 32 36 34 34 33 27 28 27 17 12 7 3 358 355 354 353 350 347 345 339 335 333 331 330 327 325 323 321 319 316 314 313 312 310 308 305 303 301 298 294 289 284 280 277 275 273 270 268 266 264 262 253 244
347 346 331 330 324 326 338 354 17 14 7 7 5 1 355 357 6 12 7 9 15 16 13 14 14 11 9 11 14 19 28 27 30 35 31 30 27 21 26 22 13 10 4 0 357 354 355 352 350 349 345 341 339 337 334 332 330 327 325 322 318 316 315 314 312 310 308 306 303 301 297 292 286 279 276 275 272 268 264 263 262 261 259 252 242
344 345 332 331 336 339 347 1 13 5 358 0 1 357 351 352 6 19 14 14 15 11 11 13 10 9 8 11 13 17 29 23 25 35 29 27 23 18 22 16 7 7 2 358 353 349 351 350 349 346 343 342 342 340 337 335 331 327 324 321 319 318 317 315 313 312 310 307 303 299 296 291 283 274 269 267 266 262 258 258 257 255 255 249 241
346 347 330 323 331 342 358 13 15 1 350 355 1 357 352 351 6 25 22 17 14 12 11 8 5 7 9 12 12 16 31 21 22 36 28 24 21 17 18 12 5 4 2 359 354 349 348 346 346 345 342 342 342 342 341 337 332 327 325 323 321 320 319 318 317 315 313 310 307 303 298 290 281 272 265 261 260 257 254 254 253 251 250 246 240
334 330 317 305 310 322 353 13 13 358 341 338 346 350 352 358 17 25 19 16 14 11 6 3 5 8 9 14 12 15 29 18 20 34 27 21 20 18 15 10 8 7 5 2 358 353 346 343 346 346 343 343 344 346 346 341 335 330 327 325 324 323 323 322 320 319 317 316 314 308 301 292 281 269 262 258 255 253 251 249 249 249 248 245 238
324 317 309 298 297 304 338 2 4 350 338 335 334 340 352 9 28 18 12 13 11 8 4 2 6 9 10 13 15 17 20 12 17 30 24 18 19 16 13 10 9 10 6 3 2 358 348 346 348 348 346 346 347 349 349 344 339 336 329 327 327 326 326 323 322 321 320 320 318 310 303 298 290 272 260 255 251 250 248 246 245 245 244 241 236
326 317 314 303 292 291 318 346 349 339 334 340 338 341 357 10 17 11 11 9 7 8 4 2 5 7 5 6 14 21 18 6 12 23 17 15 17 13 11 9 9 9 6 4 5 1 354 350 350 350 349 348 350 351 348 345 343 340 333 330 331 330 328 325 324 322 320 323 322 313 306 306 300 282 264 254 249 246 245 243 241 238 237 234 230
322 320 320 319 297 283 301 335 343 338 332 340 343 350 356 356 360 3 9 5 3 8 6 6 7 358 341 335 2 17 17 3 8 15 10 10 14 11 9 7 6 7 6 7 9 5 359 353 352 353 352 351 353 351 347 347 346 341 336 335 334 332 329 327 325 323 322 327 327 317 314 316 310 293 271 256 247 244 241 239 235 234 234 230 225
300 305 307 323 319 286 300 337 341 339 334 338 343 350 349 351 355 356 2 1 359 7 10 11 9 359 344 329 330 350 324 349 0 3 3 5 9 10 8 5 4 6 8 9 10 7 2 356 355 355 355 355 355 353 350 351 348 342 339 338 336 333 330 329 327 325 327 331 329 321 325 328 330 317 284 259 246 239 234 230 227 229 230 227 224
277 284 298 309 314 302 303 328 334 334 329 330 339 347 350 353 353 353 356 356 352 4 17 15 14 14 3 311 330 9 352 331 345 348 354 0 4 7 6 3 3 4 7 8 8 9 4 359 359 356 357 359 358 357 355 353 351 346 344 340 337 335 332 332 329 327 331 333 329 327 332 334 343 349 328 260 234 225 221 218 218 221 223 223 221
267 273 293 300 299 297 293 315 329 332 322 316 325 336 343 348 348 348 351 354 344 350 18 21 24 30 30 12 348 13 334 324 329 332 342 351 358 2 3 2 1 1 4 4 2 7 6 2 1 359 359 2 2 1 358 355 352 349 346 341 338 336 335 335 332 331 335 335 332 333 334 337 350 3 23 118 179 195 201 205 211 215 217 217 213
266 274 285 283 286 287 287 310 321 320 315 305 312 324 333 341 344 345 346 350 339 331 7 16 25 34 37 54 52 271 290 319 336 324 326 341 352 356 359 0 360 359 1 2 356 1 6 6 2 2 2 3 4 3 359 356 354 351 347 343 340 339 338 338 335 334 338 340 337 333 332 337 349 1 27 134 176 187 192 201 207 208 209 208 206
264 281 284 271 273 279 289 305 303 306 309 299 310 321 330 335 337 337 334 339 338 325 338 351 348 25 35 51 27 328 311 320 327 315 312 320 338 346 353 357 358 359 359 0 355 352 3 6 3 2 1 1 4 3 1 358 355 354 350 345 343 342 341 341 338 337 341 344 341 334 332 341 349 355 12 128 173 182 187 196 197 197 201 200 200
259 279 278 262 263 269 285 293 286 291 302 304 314 319 323 325 325 327 323 330 336 323 319 339 331 352 20 22 2 348 351 354 347 328 304 308 322 332 342 348 355 359 359 359 353 344 359 3 2 2 357 353 1 4 2 359 357 356 352 348 346 344 344 345 342 342 344 345 346 343 340 352 5 11 13 73 130 157 171 182 182 185 195 195 196
261 271 267 260 265 271 281 281 275 283 296 304 313 316 320 324 325 328 331 334 335 319 328 342 337 336 356 4 355 351 0 3 351 340 301 291 317 323 333 342 351 355 356 358 355 344 353 359 0 2 357 350 357 4 5 1 360 357 351 351 352 348 349 349 346 347 348 347 356 357 349 3 25 31 33 91 120 140 154 167 173 175 184 188 189
264 265 267 271 277 281 281 275 276 287 296 301 306 314 320 323 324 327 340 341 332 316 337 343 343 335 345 1 358 352 1 354 334 341 323 270 294 308 318 329 336 344 348 353 355 347 347 356 359 1 359 353 355 4 6 3 2 358 353 356 358 354 354 353 349 352 354 353 2 3 359 18 40 48 55 87 94 108 141 159 163 165 170 178 182
260 258 266 275 282 286 282 274 278 286 292 298 302 311 319 320 318 317 332 340 319 305 327 340 346 335 333 358 356 351 356 331 317 330 321 264 300 306 304 318 311 321 338 345 352 351 346 354 1 3 1 356 356 5 7 5 5 0 357 2 3 359 358 357 354 358 2 4 9 12 20 35 47 52 59 74 82 91 112 145 157 161 164 168 173
253 252 262 272 276 277 273 269 273 280 287 297 301 305 317 318 310 307 317 323 316 306 312 332 341 329 330 349 348 348 350 343 333 327 314 288 306 302 298 320 313 312 330 338 347 352 350 355 3 7 5 0 359 6 8 6 6 3 0 6 7 3 1 1 359 4 11 17 19 24 36 48 55 57 62 69 82 100 105 119 137 147 155 157 160
249 252 261 267 266 265 267 263 266 276 285 298 298 296 314 316 301 309 311 309 318 312 307 327 335 320 340 343 342 341 336 339 335 324 323 324 327 306 298 315 304 307 326 332 339 346 353 359 5 8 7 6 4 8 11 8 6 6 5 9 11 8 6 5 5 10 19 26 28 35 43 55 62 65 69 71 78 94 98 107 123 128 139 147 153
254 259 265 266 265 265 265 261 264 276 284 296 291 290 313 313 296 306 307 309 321 314 311 327 332 326 339 341 341 330 322 331 328 317 326 337 335 313 297 312 300 295 317 327 334 338 348 358 6 11 9 9 9 10 12 11 8 10 12 13 14 13 11 9 11 18 26 32 39 47 48 53 64 68 73 77 79 82 81 84 103 115 123 134 143
264 269 271 271 271 267 263 265 270 277 284 292 287 289 307 309 298 299 301 314 321 316 325 327 318 329 335 339 341 328 324 330 323 318 332 344 346 340 331 326 318 313 310 324 332 333 345 354 3 12 11 11 14 15 16 15 12 15 18 17 17 16 14 15 21 28 31 35 43 52 53 53 62 70 72 74 77 78 75 72 80 96 107 115 121
267 267 268 268 268 263 265 270 273 277 285 290 286 286 296 303 305 298 300 314 309 304 326 319 308 335 335 336 339 332 333 335 321 325 337 351 1 354 346 343 335 332 324 325 325 331 350 354 356 9 15 18 18 19 22 19 16 19 22 21 20 19 18 21 28 34 37 39 43 48 55 57 57 64 68 69 71 75 76 74 77 87 95 103 110
269 265 263 263 263 263 268 272 272 276 285 287 283 280 283 295 306 300 302 310 297 295 316 313 314 337 333 332 338 340 341 335 328 340 352 0 6 359 351 350 347 325 311 327 315 299 347 355 351 0 15 24 23 22 27 24 20 23 25 24 24 22 23 27 31 36 40 43 45 47 52 58 59 59 63 65 64 68 73 73 73 76 86 98 105
274 270 267 263 263 264 268 271 271 276 282 281 278 273 270 279 293 299 305 303 291 292 310 311 315 329 331 329 337 346 343 326 333 355 20 12 4 360 359 3 9 7 275 282 305 298 338 355 356 358 12 26 28 26 31 28 24 28 29 27 27 25 27 30 32 37 41 43 48 51 51 55 61 62 63 66 66 67 70 71 71 70 78 94 103
275 275 273 268 266 266 266 270 272 274 278 277 273 268 263 267 276 291 305 295 275 278 300 304 305 318 329 329 333 345 343 334 345 16 31 14 3 0 6 16 22 20 4 271 281 323 341 352 357 5 17 27 29 31 34 32 29 32 33 31 30 29 30 32 33 37 42 44 49 56 56 56 61 64 63 64 68 70 70 71 72 71 77 88 97
277 278 276 272 269 268 267 269 271 273 277 276 271 264 260 263 266 277 302 289 268 272 288 289 288 302 322 328 328 335 340 343 4 35 21 7 2 2 11 17 22 22 13 354 250 313 350 1 1 11 24 30 33 36 37 35 34 36 36 33 33 33 33 33 33 36 41 46 51 58 61 63 66 69 69 69 71 72 72 74 75 75 81 90 96
279 279 277 272 269 268 268 270 273 275 277 278 271 259 252 256 259 268 298 295 276 276 283 279 269 275 306 320 322 327 341 351 14 20 360 354 355 358 7 7 9 19 11 357 292 293 357 14 15 22 32 36 40 41 39 38 36 38 39 36 36 36 34 33 35 35 39 46 53 57 61 64 67 71 73 74 74 74 74 75 75 75 78 81 82
278 278 279 278 273 269 266 269 274 274 276 279 269 252 240 242 250 267 290 298 290 286 282 279 272 266 308 325 327 328 337 346 352 353 346 346 354 359 3 1 359 13 13 359 336 304 356 14 23 36 44 46 46 44 44 42 38 41 43 39 37 37 36 35 36 36 39 46 52 55 58 62 66 69 71 73 75 76 76 76 74 74 78 79 77
274 274 279 280 279 275 270 271 274 271 273 276 265 249 243 245 247 259 276 281 286 292 285 276 263 243 331 332 333 329 318 324 335 343 343 346 4 6 4 3 358 11 24 21 8 0 7 17 30 42 50 53 51 47 48 48 45 46 46 44 41 39 38 37 38 39 42 47 51 53 56 60 64 66 69 71 74 76 76 76 75 74 78 81 81
273 274 277 277 276 274 270 270 271 269 267 266 261 252 246 246 244 250 267 275 277 282 279 248 222 215 323 324 323 314 295 312 329 340 346 355 11 8 4 9 10 16 33 42 43 44 39 33 37 47 57 60 55 50 52 54 51 50 50 48 45 42 39 38 40 42 45 49 52 53 55 59 62 65 68 70 73 74 74 75 75 76 78 81 83
279 279 279 278 276 272 269 269 269 270 264 257 259 253 242 242 245 249 260 265 261 264 267 248 229 246 315 320 302 278 278 311 333 340 348 6 13 10 10 16 18 25 43 54 61 64 59 49 46 57 66 67 61 55 55 56 52 51 53 51 48 45 42 39 42 45 47 50 52 53 55 57 59 63 67 69 72 73 73 73 74 75 77 80 84
282 280 277 276 275 272 270 270 269 271 265 256 257 250 239 240 243 244 249 251 251 258 260 251 242 259 301 311 282 254 274 314 339 348 353 11 18 14 16 20 21 34 52 61 69 75 72 64 59 64 67 67 66 62 58 58 54 50 54 54 50 47 44 41 41 46 51 53 53 53 55 57 58 60 63 66 68 71 73 75 76 76 77 79 82
279 277 273 273 274 271 269 269 269 272 267 256 254 249 241 240 239 238 240 246 254 256 248 244 240 247 279 303 267 235 266 303 331 39 6 16 23 20 21 24 28 43 58 65 72 77 76 70 65 64 67 71 74 70 65 65 61 54 54 56 52 48 46 44 41 44 52 57 57 56 57 59 61 61 62 63 65 68 71 74 76 77 78 78 80
280 280 278 276 277 274 270 270 273 276 269 256 252 249 242 238 236 232 232 241 253 246 225 225 228 230 254 285 245 230 261 285 179 115 32 27 30 28 31 37 40 52 62 69 73 75 73 70 66 64 70 78 82 78 68 58 53 50 53 61 61 54 52 50 44 43 51 57 58 57 57 58 59 60 62 63 63 66 69 72 74 76 77 78 79
282 283 283 281 281 279 274 271 272 274 268 259 256 252 243 236 230 225 226 241 247 229 210 213 217 210 230 254 224 218 246 226 147 117 63 45 41 39 42 45 47 54 63 69 70 70 70 69 64 65 70 75 81 82 66 51 50 56 62 68 69 65 63 59 50 45 51 60 61 58 56 57 57 58 60 61 61 63 67 69 71 74 75 77 78
286 288 288 286 284 281 277 272 270 268 264 261 259 256 249 239 226 217 227 253 243 222 214 219 220 206 218 241 220 207 220 197 167 142 77 71 58 49 48 47 45 44 53 65 68 66 69 68 63 64 67 63 73 85 82 73 72 69 67 69 69 68 68 64 55 47 51 62 66 61 56 58 60 58 58 59 59 62 66 67 70 73 75 76 77
303 302 299 296 292 289 283 276 272 270 268 265 264 260 251 238 223 217 235 256 241 227 226 230 225 213 217 229 204 195 203 198 190 200 211 159 86 53 41 42 41 33 35 49 60 68 75 78 76 74 69 69 82 94 97 92 82 73 72 74 72 69 66 64 57 49 48 59 70 66 55 56 61 61 59 60 60 62 65 69 72 75 77 78 78
341 333 323 315 309 304 296 286 281 278 274 271 270 264 247 229 222 226 243 250 235 224 226 228 217 206 209 202 177 187 201 212 217 225 231 228 151 52 332 358 20 15 8 20 49 72 83 93 97 90 82 87 96 102 106 103 93 84 79 78 77 75 72 69 64 57 51 56 70 69 55 51 62 64 62 63 65 65 67 71 75 77 79 80 81
359 353 346 337 326 315 305 297 293 288 283 280 275 264 244 228 227 234 242 241 229 221 226 227 212 202 203 189 176 191 212 225 226 219 226 239 228 103 341 334 334 335 338 344 41 65 80 101 106 105 105 107 109 113 117 115 107 95 85 83 84 83 80 75 69 64 59 55 66 71 61 53 63 67 63 65 69 70 70 72 76 78 79 80 81
359 355 352 348 342 335 323 311 303 298 297 294 282 266 248 233 231 236 238 232 224 222 233 234 216 202 202 196 191 201 205 202 202 201 210 224 200 114 3 349 320 336 337 297 77 77 97 106 104 110 118 120 126 129 128 124 117 106 99 96 93 89 86 83 78 73 66 61 70 77 70 61 67 70 66 66 71 73 73 74 75 77 79 80 80
354 349 347 346 346 348 344 330 314 304 304 303 289 271 254 238 232 237 235 223 220 225 234 236 218 202 202 204 196 189 179 170 174 189 204 209 187 226 338 0 69 27 5 193 126 104 111 110 108 115 120 125 133 136 134 127 120 112 107 105 102 100 95 88 82 78 73 73 79 85 83 75 74 74 71 70 70 71 73 75 76 77 79 79 80
352 346 343 340 336 338 342 338 325 310 306 303 291 276 260 242 233 233 227 218 221 227 231 228 212 196 193 195 186 176 169 169 179 191 199 200 199 241 313 123 113 100 130 140 128 121 115 109 110 117 124 133 139 142 138 130 124 119 113 110 107 104 97 87 81 78 76 78 84 89 92 83 75 75 74 71 70 69 69 70 73 78 81 82 82
360 355 352 347 340 333 331 332 329 318 309 304 293 279 265 245 230 224 220 218 221 225 227 225 208 193 187 187 185 182 178 179 187 191 189 189 194 193 141 140 130 122 127 128 131 130 115 103 103 110 124 139 144 145 140 132 131 129 122 115 112 108 102 94 86 81 81 88 92 93 91 84 76 75 73 70 70 72 71 69 69 74 78 80 81
2 1 2 2 358 352 347 343 337 322 308 301 295 285 266 246 233 224 219 218 219 220 221 218 206 196 189 190 195 197 188 182 181 178 167 169 177 161 149 149 138 132 137 137 137 134 117 102 99 102 121 142 146 145 140 135 137 137 130 124 122 116 109 105 106 96 87 95 101 96 91 85 81 81 78 73 69 69 72 71 69 70 73 75 77
6 7 9 9 9 10 10 8 2 346 322 304 295 288 270 251 239 228 219 215 216 218 216 209 204 199 193 194 201 197 183 173 169 161 145 151 167 170 171 165 151 145 155 154 147 144 129 112 105 107 124 143 148 144 141 141 144 141 134 131 128 123 117 117 119 113 100 106 107 98 90 85 83 85 86 82 70 64 68 71 69 68 70 73 75